owner,sensor,date,latitude,longitude,vertical_datum,wind_speed,wind_to_direction,wind_speed_of_gust,qcFlag 
NDBC,ioos:station:wmo:42001:1,2017-07-01T00:50:00Z,25.8880,-89.6580,5.0,3.0,100.0,4.0,'1111122,1111122,1111122' 
NDBC,ioos:station:wmo:42001:1,2017-07-01T01:40:00Z,25.8880,-89.6580,5.0,4.0,100.0,4.0,'1111122,1111122,1111122' 
NDBC,ioos:station:wmo:42001:1,2017-07-01T02:40:00Z,25.8880,-89.6580,5.0,4.0,90.0,5.0,'1111122,1111122,1111122' 
NDBC,ioos:station:wmo:42001:1,2017-07-01T03:40:00Z,25.8880,-89.6580,5.0,4.0,90.0,6.0,'1111122,1111122,1111122' 
NDBC,ioos:station:wmo:42001:1,2017-07-01T04:40:00Z,25.8880,-89.6580,5.0,5.0,80.0,6.0,'1111122,1111122,1111122' 
NDBC,ioos:station:wmo:42001:1,2017-07-01T05:50:00Z,25.8880,-89.6580,5.0,5.0,80.0,6.0,'1111122,1111122,1111122' 
NDBC,ioos:station:wmo:42001:1,2017-07-01T06:50:00Z,25.8880,-89.6580,5.0,6.0,90.0,7.0,'1111122,1111122,1111122' 
NDBC,ioos:station:wmo:42001:1,2017-07-01T07:50:00Z,25.8880,-89.6580,5.0,5.0,100.0,6.0,'1111122,1111122,1111122' 
NDBC,ioos:station:wmo:42001:1,2017-07-01T08:40:00Z,25.8880,-89.6580,5.0,6.0,100.0,7.0,'1111122,1111122,1111122' 
NDBC,ioos:station:wmo:42001:1,2017-07-01T09:40:00Z,25.8880,-89.6580,5.0,5.0,110.0,6.0,'1111122,1111122,1111122' 
NDBC,ioos:station:wmo:42001:1,2017-07-01T10:50:00Z,25.8880,-89.6580,5.0,4.0,100.0,5.0,'1111122,1111122,1111122' 
NDBC,ioos:station:wmo:42001:1,2017-07-01T11:40:00Z,25.8880,-89.6580,5.0,4.0,100.0,5.0,'1111122,1111122,1111122' 
NDBC,ioos:station:wmo:42001:1,2017-07-01T12:40:00Z,25.8880,-89.6580,5.0,5.0,70.0,6.0,'1111122,1111122,1111122' 
NDBC,ioos:station:wmo:42001:1,2017-07-01T13:40:00Z,25.8880,-89.6580,5.0,5.0,70.0,6.0,'1111122,1111122,1111122' 
NDBC,ioos:station:wmo:42001:1,2017-07-01T14:40:00Z,25.8880,-89.6580,5.0,5.0,90.0,6.0,'1111122,1111122,1111122' 
NDBC,ioos:station:wmo:42001:1,2017-07-01T15:40:00Z,25.8880,-89.6580,5.0,5.0,80.0,6.0,'1111122,1111122,1111122' 
NDBC,ioos:station:wmo:42001:1,2017-07-01T16:40:00Z,25.8880,-89.6580,5.0,5.0,80.0,6.0,'1111122,1111122,1111122' 
NDBC,ioos:station:wmo:42001:1,2017-07-01T17:40:00Z,25.8880,-89.6580,5.0,5.0,100.0,6.0,'1111122,1111122,1111122' 
NDBC,ioos:station:wmo:42001:1,2017-07-01T18:40:00Z,25.8880,-89.6580,5.0,5.0,90.0,5.0,'1111122,1111122,1111122' 
NDBC,ioos:station:wmo:42001:1,2017-07-01T19:40:00Z,25.8880,-89.6580,5.0,5.0,90.0,6.0,'1111122,1111122,1111122' 
NDBC,ioos:station:wmo:42001:1,2017-07-01T20:40:00Z,25.8880,-89.6580,5.0,5.0,80.0,6.0,'1111122,1111122,1111122' 
NDBC,ioos:station:wmo:42001:1,2017-07-01T21:40:00Z,25.8880,-89.6580,5.0,5.0,80.0,6.0,'1111122,1111122,1111122' 
NDBC,ioos:station:wmo:42001:1,2017-07-01T22:40:00Z,25.8880,-89.6580,5.0,5.0,80.0,6.0,'1111122,1111122,1111122' 
NDBC,ioos:station:wmo:42001:1,2017-07-01T23:40:00Z,25.8880,-89.6580,5.0,5.0,90.0,6.0,'1111122,1111122,1111122' 
NDBC,ioos:station:wmo:42001:1,2017-07-02T00:50:00Z,25.8880,-89.6580,5.0,4.0,90.0,5.0,'1111122,1111122,1111122' 
NDBC,ioos:station:wmo:42001:1,2017-07-02T01:50:00Z,25.8880,-89.6580,5.0,6.0,120.0,7.0,'1111122,1111122,1111122' 
NDBC,ioos:station:wmo:42001:1,2017-07-02T02:50:00Z,25.8880,-89.6580,5.0,6.0,120.0,8.0,'1111122,1111122,1111122' 
NDBC,ioos:station:wmo:42001:1,2017-07-02T03:40:00Z,25.8880,-89.6580,5.0,7.0,120.0,8.0,'1111122,1111122,1111122' 
NDBC,ioos:station:wmo:42001:1,2017-07-02T04:40:00Z,25.8880,-89.6580,5.0,6.0,130.0,7.0,'1111122,1111122,1111122' 
NDBC,ioos:station:wmo:42001:1,2017-07-02T05:40:00Z,25.8880,-89.6580,5.0,4.0,110.0,5.0,'1111122,1111122,1111122' 
NDBC,ioos:station:wmo:42001:1,2017-07-02T06:50:00Z,25.8880,-89.6580,5.0,4.0,120.0,5.0,'1111122,1111122,1111122' 
NDBC,ioos:station:wmo:42001:1,2017-07-02T07:40:00Z,25.8880,-89.6580,5.0,5.0,140.0,6.0,'1111122,1111122,1111122' 
NDBC,ioos:station:wmo:42001:1,2017-07-02T08:40:00Z,25.8880,-89.6580,5.0,4.0,110.0,5.0,'1111122,1111122,1111122' 
NDBC,ioos:station:wmo:42001:1,2017-07-02T09:50:00Z,25.8880,-89.6580,5.0,5.0,100.0,6.0,'1111122,1111122,1111122' 
NDBC,ioos:station:wmo:42001:1,2017-07-02T10:40:00Z,25.8880,-89.6580,5.0,5.0,100.0,5.0,'1111122,1111122,1111122' 
NDBC,ioos:station:wmo:42001:1,2017-07-02T11:40:00Z,25.8880,-89.6580,5.0,4.0,100.0,5.0,'1111122,1111122,1111122' 
NDBC,ioos:station:wmo:42001:1,2017-07-02T12:40:00Z,25.8880,-89.6580,5.0,4.0,110.0,5.0,'1111122,1111122,1111122' 
NDBC,ioos:station:wmo:42001:1,2017-07-02T13:40:00Z,25.8880,-89.6580,5.0,4.0,100.0,4.0,'1111122,1111122,1111122' 
NDBC,ioos:station:wmo:42001:1,2017-07-02T14:40:00Z,25.8880,-89.6580,5.0,3.0,100.0,4.0,'1111122,1111122,1111122' 
NDBC,ioos:station:wmo:42001:1,2017-07-02T15:40:00Z,25.8880,-89.6580,5.0,3.0,100.0,4.0,'1111122,1111122,1111122' 
NDBC,ioos:station:wmo:42001:1,2017-07-02T16:40:00Z,25.8880,-89.6580,5.0,3.0,100.0,4.0,'1111122,1111122,1111122' 
NDBC,ioos:station:wmo:42001:1,2017-07-02T17:40:00Z,25.8880,-89.6580,5.0,3.0,80.0,4.0,'1111122,1111122,1111122' 
NDBC,ioos:station:wmo:42001:1,2017-07-02T18:40:00Z,25.8880,-89.6580,5.0,4.0,70.0,4.0,'1111122,1111122,1111122' 
NDBC,ioos:station:wmo:42001:1,2017-07-02T19:40:00Z,25.8880,-89.6580,5.0,4.0,70.0,5.0,'1111122,1111122,1111122' 
NDBC,ioos:station:wmo:42001:1,2017-07-02T20:40:00Z,25.8880,-89.6580,5.0,4.0,80.0,6.0,'1111122,1111122,1111122' 
NDBC,ioos:station:wmo:42001:1,2017-07-02T21:40:00Z,25.8880,-89.6580,5.0,5.0,70.0,6.0,'1111122,1111122,1111122' 
NDBC,ioos:station:wmo:42001:1,2017-07-02T22:40:00Z,25.8880,-89.6580,5.0,6.0,60.0,7.0,'1111122,1111122,1111122' 
NDBC,ioos:station:wmo:42001:1,2017-07-02T23:40:00Z,25.8880,-89.6580,5.0,5.0,60.0,6.0,'1111122,1111122,1111122' 
NDBC,ioos:station:wmo:42001:1,2017-07-03T00:30:00Z,25.8880,-89.6580,5.0,5.0,70.0,6.0,'1111122,1111122,1111122' 
NDBC,ioos:station:wmo:42001:1,2017-07-03T01:40:00Z,25.8880,-89.6580,5.0,5.0,70.0,7.0,'1111122,1111122,1111122' 
NDBC,ioos:station:wmo:42001:1,2017-07-03T02:40:00Z,25.8880,-89.6580,5.0,6.0,80.0,7.0,'1111122,1111122,1111122' 
NDBC,ioos:station:wmo:42001:1,2017-07-03T03:40:00Z,25.8880,-89.6580,5.0,6.0,90.0,7.0,'1111122,1111122,1111122' 
NDBC,ioos:station:wmo:42001:1,2017-07-03T04:40:00Z,25.8880,-89.6580,5.0,7.0,100.0,8.0,'1111122,1111122,1111122' 
NDBC,ioos:station:wmo:42001:1,2017-07-03T05:40:00Z,25.8880,-89.6580,5.0,6.0,110.0,8.0,'1111122,1111122,1111122' 
NDBC,ioos:station:wmo:42001:1,2017-07-03T06:40:00Z,25.8880,-89.6580,5.0,5.0,120.0,6.0,'1111122,1111122,1111122' 
NDBC,ioos:station:wmo:42001:1,2017-07-03T07:50:00Z,25.8880,-89.6580,5.0,5.0,120.0,6.0,'1111122,1111122,1111122' 
NDBC,ioos:station:wmo:42001:1,2017-07-03T08:40:00Z,25.8880,-89.6580,5.0,4.0,120.0,5.0,'1111122,1111122,1111122' 
NDBC,ioos:station:wmo:42001:1,2017-07-03T09:40:00Z,25.8880,-89.6580,5.0,3.0,130.0,4.0,'1111122,1111122,1111122' 
NDBC,ioos:station:wmo:42001:1,2017-07-03T10:40:00Z,25.8880,-89.6580,5.0,2.0,120.0,3.0,'1111122,1111122,1111122' 
NDBC,ioos:station:wmo:42001:1,2017-07-03T11:40:00Z,25.8880,-89.6580,5.0,2.0,90.0,2.0,'1111122,1111122,1111122' 
NDBC,ioos:station:wmo:42001:1,2017-07-03T12:40:00Z,25.8880,-89.6580,5.0,2.0,80.0,2.0,'1111122,1111122,1111122' 
NDBC,ioos:station:wmo:42001:1,2017-07-03T13:40:00Z,25.8880,-89.6580,5.0,2.0,70.0,3.0,'1111122,1111122,1111122' 
NDBC,ioos:station:wmo:42001:1,2017-07-03T14:40:00Z,25.8880,-89.6580,5.0,2.0,90.0,2.0,'1111122,1111122,1111122' 
NDBC,ioos:station:wmo:42001:1,2017-07-03T15:40:00Z,25.8880,-89.6580,5.0,3.0,80.0,4.0,'1111122,1111122,1111122' 
NDBC,ioos:station:wmo:42001:1,2017-07-03T16:40:00Z,25.8880,-89.6580,5.0,3.0,90.0,5.0,'1111122,1111122,1111122' 
NDBC,ioos:station:wmo:42001:1,2017-07-03T17:40:00Z,25.8880,-89.6580,5.0,3.0,80.0,3.0,'1111122,1111122,1111122' 
NDBC,ioos:station:wmo:42001:1,2017-07-03T18:40:00Z,25.8880,-89.6580,5.0,4.0,80.0,5.0,'1111122,1111122,1111122' 
NDBC,ioos:station:wmo:42001:1,2017-07-03T19:50:00Z,25.8880,-89.6580,5.0,4.0,70.0,5.0,'1111122,1111122,1111122' 
NDBC,ioos:station:wmo:42001:1,2017-07-03T20:40:00Z,25.8880,-89.6580,5.0,4.0,10.0,4.0,'1111122,1111122,1111122' 
NDBC,ioos:station:wmo:42001:1,2017-07-03T21:40:00Z,25.8880,-89.6580,5.0,5.0,50.0,6.0,'1111122,1111122,1111122' 
NDBC,ioos:station:wmo:42001:1,2017-07-03T22:30:00Z,25.8880,-89.6580,5.0,3.0,70.0,5.0,'1111122,1111122,1111122' 
NDBC,ioos:station:wmo:42001:1,2017-07-03T23:40:00Z,25.8880,-89.6580,5.0,5.0,60.0,6.0,'1111122,1111122,1111122' 
NDBC,ioos:station:wmo:42001:1,2017-07-04T00:40:00Z,25.8880,-89.6580,5.0,5.0,60.0,6.0,'1111122,1111122,1111122' 
NDBC,ioos:station:wmo:42001:1,2017-07-04T01:40:00Z,25.8880,-89.6580,5.0,6.0,80.0,7.0,'1111122,1111122,1111122' 
NDBC,ioos:station:wmo:42001:1,2017-07-04T02:40:00Z,25.8880,-89.6580,5.0,6.0,90.0,8.0,'1111122,1111122,1111122' 
NDBC,ioos:station:wmo:42001:1,2017-07-04T03:40:00Z,25.8880,-89.6580,5.0,6.0,100.0,7.0,'1111122,1111122,1111122' 
NDBC,ioos:station:wmo:42001:1,2017-07-04T04:40:00Z,25.8880,-89.6580,5.0,6.0,100.0,7.0,'1111122,1111122,1111122' 
NDBC,ioos:station:wmo:42001:1,2017-07-04T05:50:00Z,25.8880,-89.6580,5.0,6.0,110.0,7.0,'1111122,1111122,1111122' 
NDBC,ioos:station:wmo:42001:1,2017-07-04T06:40:00Z,25.8880,-89.6580,5.0,7.0,110.0,8.0,'1111122,1111122,1111122' 
NDBC,ioos:station:wmo:42001:1,2017-07-04T07:40:00Z,25.8880,-89.6580,5.0,7.0,130.0,8.0,'1111122,1111122,1111122' 
NDBC,ioos:station:wmo:42001:1,2017-07-04T08:40:00Z,25.8880,-89.6580,5.0,6.0,130.0,7.0,'1111122,1111122,1111122' 
NDBC,ioos:station:wmo:42001:1,2017-07-04T09:40:00Z,25.8880,-89.6580,5.0,6.0,140.0,7.0,'1111122,1111122,1111122' 
NDBC,ioos:station:wmo:42001:1,2017-07-04T10:50:00Z,25.8880,-89.6580,5.0,5.0,140.0,6.0,'1111122,1111122,1111122' 
NDBC,ioos:station:wmo:42001:1,2017-07-04T11:40:00Z,25.8880,-89.6580,5.0,3.0,160.0,4.0,'1111122,1111122,1111122' 
NDBC,ioos:station:wmo:42001:1,2017-07-04T12:40:00Z,25.8880,-89.6580,5.0,3.0,150.0,4.0,'1111122,1111122,1111122' 
NDBC,ioos:station:wmo:42001:1,2017-07-04T13:40:00Z,25.8880,-89.6580,5.0,3.0,130.0,3.0,'1111122,1111122,1111122' 
NDBC,ioos:station:wmo:42001:1,2017-07-04T14:40:00Z,25.8880,-89.6580,5.0,2.0,120.0,3.0,'1111122,1111122,1111122' 
NDBC,ioos:station:wmo:42001:1,2017-07-04T15:40:00Z,25.8880,-89.6580,5.0,2.0,90.0,3.0,'1111122,1111122,1111122' 
NDBC,ioos:station:wmo:42001:1,2017-07-04T16:40:00Z,25.8880,-89.6580,5.0,3.0,70.0,4.0,'1111122,1111122,1111122' 
NDBC,ioos:station:wmo:42001:1,2017-07-04T17:40:00Z,25.8880,-89.6580,5.0,3.0,70.0,4.0,'1111122,1111122,1111122' 
NDBC,ioos:station:wmo:42001:1,2017-07-04T18:40:00Z,25.8880,-89.6580,5.0,3.0,80.0,4.0,'1111122,1111122,1111122' 
NDBC,ioos:station:wmo:42001:1,2017-07-04T19:40:00Z,25.8880,-89.6580,5.0,4.0,100.0,4.0,'1111122,1111122,1111122' 
NDBC,ioos:station:wmo:42001:1,2017-07-04T20:40:00Z,25.8880,-89.6580,5.0,3.0,90.0,5.0,'1111122,1111122,1111122' 
NDBC,ioos:station:wmo:42001:1,2017-07-04T21:40:00Z,25.8880,-89.6580,5.0,5.0,90.0,6.0,'1111122,1111122,1111122' 
NDBC,ioos:station:wmo:42001:1,2017-07-04T22:50:00Z,25.8880,-89.6580,5.0,5.0,110.0,6.0,'1111122,1111122,1111122' 
NDBC,ioos:station:wmo:42001:1,2017-07-04T23:40:00Z,25.8880,-89.6580,5.0,5.0,100.0,6.0,'1111122,1111122,1111122' 
NDBC,ioos:station:wmo:42001:1,2017-07-05T00:40:00Z,25.8880,-89.6580,5.0,6.0,110.0,7.0,'1111122,1111122,1111122' 
NDBC,ioos:station:wmo:42001:1,2017-07-05T01:40:00Z,25.8880,-89.6580,5.0,6.0,110.0,7.0,'1111122,1111122,1111122' 
NDBC,ioos:station:wmo:42001:1,2017-07-05T02:50:00Z,25.8880,-89.6580,5.0,7.0,120.0,9.0,'1111122,1111122,1111122' 
NDBC,ioos:station:wmo:42001:1,2017-07-05T03:40:00Z,25.8880,-89.6580,5.0,7.0,120.0,8.0,'1111122,1111122,1111122' 
NDBC,ioos:station:wmo:42001:1,2017-07-05T04:50:00Z,25.8880,-89.6580,5.0,7.0,130.0,8.0,'1111122,1111122,1111122' 
NDBC,ioos:station:wmo:42001:1,2017-07-05T05:40:00Z,25.8880,-89.6580,5.0,6.0,120.0,7.0,'1111122,1111122,1111122' 
NDBC,ioos:station:wmo:42001:1,2017-07-05T06:40:00Z,25.8880,-89.6580,5.0,7.0,130.0,8.0,'1111122,1111122,1111122' 
NDBC,ioos:station:wmo:42001:1,2017-07-05T07:40:00Z,25.8880,-89.6580,5.0,5.0,130.0,7.0,'1111122,1111122,1111122' 
NDBC,ioos:station:wmo:42001:1,2017-07-05T08:40:00Z,25.8880,-89.6580,5.0,5.0,140.0,6.0,'1111122,1111122,1111122' 
NDBC,ioos:station:wmo:42001:1,2017-07-05T09:40:00Z,25.8880,-89.6580,5.0,5.0,130.0,6.0,'1111122,1111122,1111122' 
NDBC,ioos:station:wmo:42001:1,2017-07-05T10:30:00Z,25.8880,-89.6580,5.0,5.0,130.0,6.0,'1111122,1111122,1111122' 
NDBC,ioos:station:wmo:42001:1,2017-07-05T11:40:00Z,25.8880,-89.6580,5.0,5.0,120.0,6.0,'1111122,1111122,1111122' 
NDBC,ioos:station:wmo:42001:1,2017-07-05T12:40:00Z,25.8880,-89.6580,5.0,4.0,120.0,5.0,'1111122,1111122,1111122' 
NDBC,ioos:station:wmo:42001:1,2017-07-05T13:40:00Z,25.8880,-89.6580,5.0,4.0,100.0,5.0,'1111122,1111122,1111122' 
NDBC,ioos:station:wmo:42001:1,2017-07-05T14:40:00Z,25.8880,-89.6580,5.0,3.0,120.0,5.0,'1111122,1111122,1111122' 
NDBC,ioos:station:wmo:42001:1,2017-07-05T15:40:00Z,25.8880,-89.6580,5.0,5.0,120.0,7.0,'1111122,1111122,1111122' 
NDBC,ioos:station:wmo:42001:1,2017-07-05T16:40:00Z,25.8880,-89.6580,5.0,5.0,110.0,6.0,'1111122,1111122,1111122' 
NDBC,ioos:station:wmo:42001:1,2017-07-05T17:40:00Z,25.8880,-89.6580,5.0,4.0,120.0,6.0,'1111122,1111122,1111122' 
NDBC,ioos:station:wmo:42001:1,2017-07-05T18:50:00Z,25.8880,-89.6580,5.0,5.0,110.0,6.0,'1111122,1111122,1111122' 
NDBC,ioos:station:wmo:42001:1,2017-07-05T19:40:00Z,25.8880,-89.6580,5.0,5.0,110.0,7.0,'1111122,1111122,1111122' 
NDBC,ioos:station:wmo:42001:1,2017-07-05T20:40:00Z,25.8880,-89.6580,5.0,6.0,110.0,7.0,'1111122,1111122,1111122' 
NDBC,ioos:station:wmo:42001:1,2017-07-05T21:40:00Z,25.8880,-89.6580,5.0,5.0,110.0,6.0,'1111122,1111122,1111122' 
NDBC,ioos:station:wmo:42001:1,2017-07-05T22:40:00Z,25.8880,-89.6580,5.0,5.0,100.0,6.0,'1111122,1111122,1111122' 
NDBC,ioos:station:wmo:42001:1,2017-07-05T23:30:00Z,25.8880,-89.6580,5.0,6.0,90.0,7.0,'1111122,1111122,1111122' 
NDBC,ioos:station:wmo:42001:1,2017-07-06T00:40:00Z,25.8880,-89.6580,5.0,6.0,110.0,7.0,'1111122,1111122,1111122' 
NDBC,ioos:station:wmo:42001:1,2017-07-06T01:50:00Z,25.8880,-89.6580,5.0,6.0,120.0,8.0,'1111122,1111122,1111122' 
NDBC,ioos:station:wmo:42001:1,2017-07-06T02:40:00Z,25.8880,-89.6580,5.0,6.0,110.0,8.0,'1111122,1111122,1111122' 
NDBC,ioos:station:wmo:42001:1,2017-07-06T03:40:00Z,25.8880,-89.6580,5.0,7.0,110.0,8.0,'1111122,1111122,1111122' 
NDBC,ioos:station:wmo:42001:1,2017-07-06T04:40:00Z,25.8880,-89.6580,5.0,6.0,120.0,7.0,'1111122,1111122,1111122' 
NDBC,ioos:station:wmo:42001:1,2017-07-06T05:40:00Z,25.8880,-89.6580,5.0,6.0,120.0,7.0,'1111122,1111122,1111122' 
NDBC,ioos:station:wmo:42001:1,2017-07-06T06:40:00Z,25.8880,-89.6580,5.0,6.0,130.0,7.0,'1111122,1111122,1111122' 
NDBC,ioos:station:wmo:42001:1,2017-07-06T07:40:00Z,25.8880,-89.6580,5.0,6.0,140.0,7.0,'1111122,1111122,1111122' 
NDBC,ioos:station:wmo:42001:1,2017-07-06T08:40:00Z,25.8880,-89.6580,5.0,5.0,140.0,5.0,'1111122,1111122,1111122' 
NDBC,ioos:station:wmo:42001:1,2017-07-06T09:40:00Z,25.8880,-89.6580,5.0,3.0,120.0,5.0,'1111122,1111122,1111122' 
NDBC,ioos:station:wmo:42001:1,2017-07-06T10:40:00Z,25.8880,-89.6580,5.0,4.0,100.0,4.0,'1111122,1111122,1111122' 
NDBC,ioos:station:wmo:42001:1,2017-07-06T11:40:00Z,25.8880,-89.6580,5.0,4.0,70.0,5.0,'1111122,1111122,1111122' 
NDBC,ioos:station:wmo:42001:1,2017-07-06T12:40:00Z,25.8880,-89.6580,5.0,4.0,80.0,5.0,'1111122,1111122,1111122' 
NDBC,ioos:station:wmo:42001:1,2017-07-06T13:40:00Z,25.8880,-89.6580,5.0,3.0,80.0,4.0,'1111122,1111122,1111122' 
NDBC,ioos:station:wmo:42001:1,2017-07-06T14:40:00Z,25.8880,-89.6580,5.0,1.0,160.0,2.0,'1111122,1111122,1111122' 
NDBC,ioos:station:wmo:42001:1,2017-07-06T15:40:00Z,25.8880,-89.6580,5.0,4.0,90.0,5.0,'1111122,1111122,1111122' 
NDBC,ioos:station:wmo:42001:1,2017-07-06T16:40:00Z,25.8880,-89.6580,5.0,4.0,50.0,4.0,'1111122,1111122,1111122' 
NDBC,ioos:station:wmo:42001:1,2017-07-06T17:40:00Z,25.8880,-89.6580,5.0,5.0,50.0,5.0,'1111122,1111122,1111122' 
NDBC,ioos:station:wmo:42001:1,2017-07-06T18:40:00Z,25.8880,-89.6580,5.0,6.0,70.0,7.0,'1111122,1111122,1111122' 
NDBC,ioos:station:wmo:42001:1,2017-07-06T19:40:00Z,25.8880,-89.6580,5.0,5.0,80.0,6.0,'1111122,1111122,1111122' 
NDBC,ioos:station:wmo:42001:1,2017-07-06T20:40:00Z,25.8880,-89.6580,5.0,5.0,90.0,6.0,'1111122,1111122,1111122' 
NDBC,ioos:station:wmo:42001:1,2017-07-06T21:40:00Z,25.8880,-89.6580,5.0,5.0,80.0,6.0,'1111122,1111122,1111122' 
NDBC,ioos:station:wmo:42001:1,2017-07-06T22:40:00Z,25.8880,-89.6580,5.0,5.0,90.0,7.0,'1111122,1111122,1111122' 
NDBC,ioos:station:wmo:42001:1,2017-07-06T23:50:00Z,25.8880,-89.6580,5.0,6.0,90.0,7.0,'1111122,1111122,1111122' 
NDBC,ioos:station:wmo:42001:1,2017-07-07T00:50:00Z,25.8880,-89.6580,5.0,6.0,100.0,7.0,'1111122,1111122,1111122' 
NDBC,ioos:station:wmo:42001:1,2017-07-07T01:40:00Z,25.8880,-89.6580,5.0,6.0,110.0,7.0,'1111122,1111122,1111122' 
NDBC,ioos:station:wmo:42001:1,2017-07-07T02:50:00Z,25.8880,-89.6580,5.0,6.0,110.0,7.0,'1111122,1111122,1111122' 
NDBC,ioos:station:wmo:42001:1,2017-07-07T03:40:00Z,25.8880,-89.6580,5.0,5.0,100.0,6.0,'1111122,1111122,1111122' 
NDBC,ioos:station:wmo:42001:1,2017-07-07T04:50:00Z,25.8880,-89.6580,5.0,5.0,100.0,6.0,'1111122,1111122,1111122' 
NDBC,ioos:station:wmo:42001:1,2017-07-07T05:40:00Z,25.8880,-89.6580,5.0,6.0,110.0,7.0,'1111122,1111122,1111122' 
NDBC,ioos:station:wmo:42001:1,2017-07-07T06:40:00Z,25.8880,-89.6580,5.0,6.0,110.0,7.0,'1111122,1111122,1111122' 
NDBC,ioos:station:wmo:42001:1,2017-07-07T07:40:00Z,25.8880,-89.6580,5.0,5.0,110.0,7.0,'1111122,1111122,1111122' 
NDBC,ioos:station:wmo:42001:1,2017-07-07T08:40:00Z,25.8880,-89.6580,5.0,5.0,130.0,7.0,'1111122,1111122,1111122' 
NDBC,ioos:station:wmo:42001:1,2017-07-07T09:40:00Z,25.8880,-89.6580,5.0,4.0,120.0,5.0,'1111122,1111122,1111122' 
NDBC,ioos:station:wmo:42001:1,2017-07-07T10:40:00Z,25.8880,-89.6580,5.0,4.0,110.0,5.0,'1111122,1111122,1111122' 
NDBC,ioos:station:wmo:42001:1,2017-07-07T11:40:00Z,25.8880,-89.6580,5.0,4.0,120.0,5.0,'1111122,1111122,1111122' 
NDBC,ioos:station:wmo:42001:1,2017-07-07T12:40:00Z,25.8880,-89.6580,5.0,4.0,120.0,4.0,'1111122,1111122,1111122' 
NDBC,ioos:station:wmo:42001:1,2017-07-07T13:40:00Z,25.8880,-89.6580,5.0,4.0,120.0,5.0,'1111122,1111122,1111122' 
NDBC,ioos:station:wmo:42001:1,2017-07-07T14:50:00Z,25.8880,-89.6580,5.0,4.0,100.0,5.0,'1111122,1111122,1111122' 
NDBC,ioos:station:wmo:42001:1,2017-07-07T15:40:00Z,25.8880,-89.6580,5.0,4.0,90.0,5.0,'1111122,1111122,1111122' 
NDBC,ioos:station:wmo:42001:1,2017-07-07T16:40:00Z,25.8880,-89.6580,5.0,4.0,110.0,5.0,'1111122,1111122,1111122' 
NDBC,ioos:station:wmo:42001:1,2017-07-07T17:40:00Z,25.8880,-89.6580,5.0,4.0,110.0,5.0,'1111122,1111122,1111122' 
NDBC,ioos:station:wmo:42001:1,2017-07-07T18:40:00Z,25.8880,-89.6580,5.0,4.0,110.0,4.0,'1111122,1111122,1111122' 
NDBC,ioos:station:wmo:42001:1,2017-07-07T19:40:00Z,25.8880,-89.6580,5.0,3.0,100.0,4.0,'1111122,1111122,1111122' 
NDBC,ioos:station:wmo:42001:1,2017-07-07T20:40:00Z,25.8880,-89.6580,5.0,3.0,100.0,4.0,'1111122,1111122,1111122' 
NDBC,ioos:station:wmo:42001:1,2017-07-07T21:40:00Z,25.8880,-89.6580,5.0,3.0,90.0,4.0,'1111122,1111122,1111122' 
NDBC,ioos:station:wmo:42001:1,2017-07-07T22:50:00Z,25.8880,-89.6580,5.0,3.0,60.0,3.0,'1111122,1111122,1111122' 
NDBC,ioos:station:wmo:42001:1,2017-07-07T23:40:00Z,25.8880,-89.6580,5.0,3.0,90.0,4.0,'1111122,1111122,1111122' 
NDBC,ioos:station:wmo:42001:1,2017-07-08T00:50:00Z,25.8880,-89.6580,5.0,4.0,90.0,5.0,'1111122,1111122,1111122' 
NDBC,ioos:station:wmo:42001:1,2017-07-08T01:40:00Z,25.8880,-89.6580,5.0,3.0,100.0,4.0,'1111122,1111122,1111122' 
NDBC,ioos:station:wmo:42001:1,2017-07-08T02:40:00Z,25.8880,-89.6580,5.0,3.0,100.0,4.0,'1111122,1111122,1111122' 
NDBC,ioos:station:wmo:42001:1,2017-07-08T03:40:00Z,25.8880,-89.6580,5.0,4.0,110.0,5.0,'1111122,1111122,1111122' 
NDBC,ioos:station:wmo:42001:1,2017-07-08T04:40:00Z,25.8880,-89.6580,5.0,4.0,100.0,5.0,'1111122,1111122,1111122' 
NDBC,ioos:station:wmo:42001:1,2017-07-08T05:50:00Z,25.8880,-89.6580,5.0,4.0,110.0,5.0,'1111122,1111122,1111122' 
NDBC,ioos:station:wmo:42001:1,2017-07-08T06:40:00Z,25.8880,-89.6580,5.0,4.0,130.0,5.0,'1111122,1111122,1111122' 
NDBC,ioos:station:wmo:42001:1,2017-07-08T07:40:00Z,25.8880,-89.6580,5.0,5.0,130.0,6.0,'1111122,1111122,1111122' 
NDBC,ioos:station:wmo:42001:1,2017-07-08T08:50:00Z,25.8880,-89.6580,5.0,4.0,140.0,5.0,'1111122,1111122,1111122' 
NDBC,ioos:station:wmo:42001:1,2017-07-08T09:40:00Z,25.8880,-89.6580,5.0,3.0,150.0,4.0,'1111122,1111122,1111122' 
NDBC,ioos:station:wmo:42001:1,2017-07-08T10:40:00Z,25.8880,-89.6580,5.0,3.0,160.0,4.0,'1111122,1111122,1111122' 
NDBC,ioos:station:wmo:42001:1,2017-07-08T11:40:00Z,25.8880,-89.6580,5.0,3.0,160.0,4.0,'1111122,1111122,1111122' 
NDBC,ioos:station:wmo:42001:1,2017-07-08T12:40:00Z,25.8880,-89.6580,5.0,2.0,190.0,3.0,'1111122,1111122,1111122' 
NDBC,ioos:station:wmo:42001:1,2017-07-08T13:50:00Z,25.8880,-89.6580,5.0,0.0,-9999.0,1.0,'1114422,1111122,1111122' 
NDBC,ioos:station:wmo:42001:1,2017-07-08T14:40:00Z,25.8880,-89.6580,5.0,1.0,180.0,2.0,'1111122,1111122,1111122' 
NDBC,ioos:station:wmo:42001:1,2017-07-08T15:40:00Z,25.8880,-89.6580,5.0,0.0,-9999.0,1.0,'1114422,1111122,1111122' 
NDBC,ioos:station:wmo:42001:1,2017-07-08T16:40:00Z,25.8880,-89.6580,5.0,0.0,-9999.0,1.0,'1114422,1111122,1111122' 
NDBC,ioos:station:wmo:42001:1,2017-07-08T17:40:00Z,25.8880,-89.6580,5.0,0.0,-9999.0,1.0,'1114422,1111122,1111122' 
NDBC,ioos:station:wmo:42001:1,2017-07-08T18:40:00Z,25.8880,-89.6580,5.0,0.0,-9999.0,1.0,'1114422,1111122,1111122' 
NDBC,ioos:station:wmo:42001:1,2017-07-08T19:40:00Z,25.8880,-89.6580,5.0,1.0,10.0,2.0,'1111122,1111122,1111122' 
NDBC,ioos:station:wmo:42001:1,2017-07-08T20:50:00Z,25.8880,-89.6580,5.0,1.0,50.0,2.0,'1111122,1111122,1111122' 
NDBC,ioos:station:wmo:42001:1,2017-07-08T21:40:00Z,25.8880,-89.6580,5.0,1.0,350.0,2.0,'1111122,1111122,1111122' 
NDBC,ioos:station:wmo:42001:1,2017-07-08T22:50:00Z,25.8880,-89.6580,5.0,2.0,350.0,3.0,'1111122,1111122,1111122' 
NDBC,ioos:station:wmo:42001:1,2017-07-08T23:40:00Z,25.8880,-89.6580,5.0,3.0,360.0,3.0,'1111122,1111122,1111122' 
NDBC,ioos:station:wmo:42001:1,2017-07-09T00:40:00Z,25.8880,-89.6580,5.0,2.0,10.0,3.0,'1111122,1111122,1111122' 
NDBC,ioos:station:wmo:42001:1,2017-07-09T01:50:00Z,25.8880,-89.6580,5.0,2.0,40.0,3.0,'1111122,1111122,1111122' 
NDBC,ioos:station:wmo:42001:1,2017-07-09T02:40:00Z,25.8880,-89.6580,5.0,2.0,50.0,3.0,'1111122,1111122,1111122' 
NDBC,ioos:station:wmo:42001:1,2017-07-09T03:50:00Z,25.8880,-89.6580,5.0,3.0,60.0,4.0,'1111122,1111122,1111122' 
NDBC,ioos:station:wmo:42001:1,2017-07-09T04:50:00Z,25.8880,-89.6580,5.0,4.0,90.0,4.0,'1111122,1111122,1111122' 
NDBC,ioos:station:wmo:42001:1,2017-07-09T05:40:00Z,25.8880,-89.6580,5.0,4.0,100.0,5.0,'1111122,1111122,1111122' 
NDBC,ioos:station:wmo:42001:1,2017-07-09T06:40:00Z,25.8880,-89.6580,5.0,3.0,110.0,4.0,'1111122,1111122,1111122' 
NDBC,ioos:station:wmo:42001:1,2017-07-09T07:40:00Z,25.8880,-89.6580,5.0,2.0,110.0,3.0,'1111122,1111122,1111122' 
NDBC,ioos:station:wmo:42001:1,2017-07-09T08:40:00Z,25.8880,-89.6580,5.0,2.0,100.0,2.0,'1111122,1111122,1111122' 
NDBC,ioos:station:wmo:42001:1,2017-07-09T09:40:00Z,25.8880,-89.6580,5.0,1.0,30.0,1.0,'1111122,1111122,1111122' 
NDBC,ioos:station:wmo:42001:1,2017-07-09T10:40:00Z,25.8880,-89.6580,5.0,2.0,70.0,2.0,'1111122,1111122,1111122' 
NDBC,ioos:station:wmo:42001:1,2017-07-09T11:40:00Z,25.8880,-89.6580,5.0,2.0,80.0,3.0,'1111122,1111122,1111122' 
NDBC,ioos:station:wmo:42001:1,2017-07-09T12:40:00Z,25.8880,-89.6580,5.0,2.0,60.0,2.0,'1111122,1111122,1111122' 
NDBC,ioos:station:wmo:42001:1,2017-07-09T13:40:00Z,25.8880,-89.6580,5.0,2.0,60.0,3.0,'1111122,1111122,1111122' 
NDBC,ioos:station:wmo:42001:1,2017-07-09T14:50:00Z,25.8880,-89.6580,5.0,2.0,90.0,3.0,'1111122,1111122,1111122' 
NDBC,ioos:station:wmo:42001:1,2017-07-09T15:40:00Z,25.8880,-89.6580,5.0,2.0,70.0,2.0,'1111122,1111122,1111122' 
NDBC,ioos:station:wmo:42001:1,2017-07-09T16:40:00Z,25.8880,-89.6580,5.0,2.0,70.0,2.0,'1111122,1111122,1111122' 
NDBC,ioos:station:wmo:42001:1,2017-07-09T17:40:00Z,25.8880,-89.6580,5.0,2.0,10.0,3.0,'1111122,1111122,1111122' 
NDBC,ioos:station:wmo:42001:1,2017-07-09T18:40:00Z,25.8880,-89.6580,5.0,2.0,20.0,3.0,'1111122,1111122,1111122' 
NDBC,ioos:station:wmo:42001:1,2017-07-09T19:40:00Z,25.8880,-89.6580,5.0,3.0,20.0,6.0,'1111122,1111122,1111122' 